Weather History for KNZY - January, 2014

Change the Weather History Date:

Wednesday, January 8, 2014

  Actual Average (KSAN) Record (KSAN)
Temperature  
Mean Temperature 62 °F 57 °F  
Max Temperature 68 °F 65 °F 78 °F (1983)
Min Temperature 55 °F 49 °F 33 °F (1894)
Degree Days  
Heating Degree Days 4 8  
Month to date heating degree days 67  
Since 1 July heating degree days 474  
Cooling Degree Days 0 0  
Month to date cooling degree days 0  
Year to date cooling degree days 0  
Growing Degree Days 12 (Base 50)    
Moisture  
Dew Point 51 °F    
Average Humidity 70    
Maximum Humidity 84    
Minimum Humidity 55    
Precipitation  
Precipitation 0.00 in 0.07 in 0.96 in (1931)
Month to date precipitation 0.53  
Year to date precipitation 0.53  
Since 1 July precipitation 3.84  
Snow  
Snow 0.00 in - - ()
Month to date snowfall  
Year to date snowfall  
Since 1 July snowfall  
Snow Depth -    
Sea Level Pressure  
Sea Level Pressure 30.07 in    
Wind  
Wind Speed 5 mph (SE)    
Max Wind Speed 9 mph    
Max Gust Speed -    
Visibility 7 miles    
Events Fog    
T = Trace of Precipitation, MM = Missing Value Source: NWS Daily Summary

Daily Weather History Graph

Daily Weather History Graph

Search for Another Location

Airport or City:

Trip Planner

Search our weather history database for the weather conditions in past years. The results will help you decide how hot, cold, wet, or windy it might be!

Date:

Astronomy

Jan. 08, 2014 Rise Set
Actual Time 6:51 AM PST 4:59 PM PST
Civil Twilight 6:24 AM PST 5:26 PM PST
Nautical Twilight 5:54 AM PST 5:57 PM PST
Astronomical Twilight 5:24 AM PST 6:26 PM PST
Moon 11:44 AM PST (1/8) 12:13 AM PST (1/8)
Length of Visible Light 11h 01m
Length of Day
10h 07m
First Quarter, 57% of the Moon is Illuminated
Jan 8
First Quarter
Jan 15
Full
Jan 23
Last Quarter
Jan 30
New
Feb 6
First Quarter

Hourly Weather History & Observations

Time (PST) Temp. Dew Point Humidity Pressure Visibility Wind Dir Wind Speed Gust Speed Precip Events Conditions
12:52 AM 60.1 °F 53.1 °F 78% 30.07 in 5.0 mi ESE 5.8 mph - N/A   Mostly Cloudy
1:52 AM 61.0 °F 54.0 °F 78% 30.07 in 6.0 mi ESE 3.5 mph - N/A   Mostly Cloudy
2:52 AM 59.0 °F 52.0 °F 78% 30.06 in 5.0 mi ESE 5.8 mph - N/A   Mostly Cloudy
3:52 AM 60.1 °F 53.1 °F 78% 30.06 in 5.0 mi South 3.5 mph - N/A   Mostly Cloudy
4:52 AM 57.0 °F 50.0 °F 77% 30.06 in 4.0 mi East 5.8 mph - N/A   Mostly Cloudy
5:52 AM 55.0 °F 48.0 °F 77% 30.05 in 2.0 mi ENE 8.1 mph - N/A   Mostly Cloudy
6:25 AM 55.0 °F 48.9 °F 80% 30.06 in 4.0 mi ENE 4.6 mph - N/A   Mostly Cloudy
6:52 AM 55.9 °F 51.1 °F 84% 30.07 in 2.5 mi Calm Calm - N/A   Mostly Cloudy
7:29 AM 57.0 °F 52.0 °F 83% 30.07 in 0.2 mi Calm Calm - N/A Fog Fog
7:52 AM 57.0 °F 51.1 °F 81% 30.09 in 0.2 mi ENE 6.9 mph - N/A Fog Fog
8:11 AM 57.0 °F 51.1 °F 81% 30.10 in 1.5 mi East 6.9 mph - N/A   Overcast
8:34 AM 57.9 °F 51.1 °F 78% 30.11 in 2.5 mi East 5.8 mph - N/A   Mostly Cloudy
8:52 AM 59.0 °F 51.1 °F 75% 30.12 in 3.0 mi East 5.8 mph - N/A   Haze
9:52 AM 64.0 °F 50.0 °F 60% 30.13 in 5.0 mi East 4.6 mph - N/A   Haze
10:52 AM 66.9 °F 53.1 °F 61% 30.12 in 7.0 mi SE 4.6 mph - N/A   Mostly Cloudy
11:52 AM 66.9 °F 53.1 °F 61% 30.09 in 10.0 mi South 5.8 mph - N/A   Mostly Cloudy
12:27 PM 66.9 °F 51.1 °F 57% 30.06 in 10.0 mi SSE 6.9 mph - N/A   Mostly Cloudy
12:52 PM 66.0 °F 52.0 °F 60% 30.05 in 10.0 mi South 4.6 mph - N/A   Mostly Cloudy
1:26 PM 68.0 °F 52.0 °F 56% 30.03 in 10.0 mi SSW 6.9 mph - N/A   Mostly Cloudy
1:52 PM 68.0 °F 51.1 °F 55% 30.02 in 10.0 mi SSW 6.9 mph - N/A   Mostly Cloudy
2:52 PM 66.9 °F 52.0 °F 59% 30.03 in 10.0 mi SSW 9.2 mph - N/A   Scattered Clouds
3:52 PM 66.0 °F 52.0 °F 60% 30.04 in 10.0 mi WSW 8.1 mph - N/A   Scattered Clouds
4:52 PM 63.0 °F 51.1 °F 65% 30.05 in 10.0 mi SW 4.6 mph - N/A   Mostly Cloudy
5:22 PM 63.0 °F 52.0 °F 67% 30.05 in 10.0 mi SSW 3.5 mph - N/A   Mostly Cloudy
5:52 PM 63.0 °F 52.0 °F 67% 30.06 in 10.0 mi Calm Calm - N/A   Mostly Cloudy
6:52 PM 63.0 °F 51.1 °F 65% 30.07 in 10.0 mi South 3.5 mph - N/A   Mostly Cloudy
7:52 PM 63.0 °F 51.1 °F 65% 30.07 in 10.0 mi SSW 5.8 mph - N/A   Mostly Cloudy
8:52 PM 61.0 °F 50.0 °F 67% 30.08 in 9.0 mi SSE 4.6 mph - N/A   Mostly Cloudy
9:52 PM 61.0 °F 51.1 °F 70% 30.09 in 9.0 mi SE 6.9 mph - N/A   Mostly Cloudy
10:52 PM 61.0 °F 51.1 °F 70% 30.09 in 9.0 mi SSE 6.9 mph - N/A   Mostly Cloudy
11:52 PM 61.0 °F 50.0 °F 67% 30.08 in 8.0 mi SE 9.2 mph - N/A   Mostly Cloudy